Weather reports worldwide

Advertisment
Gioia Del Colle, Italy (16312): temperature & dewpoint: 03.08.2020 21:00:00 - 09.08.2020 21:00:00 (CEST)Gioia Del Colle, Italy (16312): wind speed: 03.08.2020 21:00:00 - 09.08.2020 21:00:00 (CEST)Gioia Del Colle, Italy (16312): wind direction: 03.08.2020 21:00:00 - 09.08.2020 21:00:00 (CEST)Gioia Del Colle, Italy (16312): reduced air pressure: 03.08.2020 21:00:00 - 09.08.2020 21:00:00 (CEST)Gioia Del Colle, Italy (16312): visibility: 03.08.2020 21:00:00 - 09.08.2020 21:00:00 (CEST)
Date & Time tt [°C] td [°C] ff [km/h] ff [kn] dd ppp [hPa] vv [km]
09.08.2020 21:00:00 25,0 18,0 24 13 N - 10
09.08.2020 20:00:00 26,4 10,5 15 8 N 1010,6 10
09.08.2020 19:00:00 27,0 12,0 18 10 NNW - 10
09.08.2020 18:00:00 28,0 13,0 24 13 N - 10
09.08.2020 17:00:00 29,0 12,9 24 13 N 1010,3 10
09.08.2020 16:00:00 29,0 13,0 21 11 NNE - 10
09.08.2020 15:00:00 29,0 11,0 28 15 NNE - 10
09.08.2020 14:00:00 29,0 13,2 26 14 NNE 1010,5 10
09.08.2020 13:00:00 29,0 14,0 24 13 N - 10
09.08.2020 12:00:00 28,0 13,0 26 14 N - 10
09.08.2020 11:00:00 27,4 15,4 22 12 N 1011,4 10
09.08.2020 10:00:00 26,0 16,0 18 10 N - 10
09.08.2020 09:00:00 25,0 18,0 15 8 N - 10
09.08.2020 08:00:00 23,2 20,2 13 7 NNW 1011,4 9
09.08.2020 07:00:00 22,0 20,0 13 7 NNW - 9
09.08.2020 06:00:00 21,0 20,0 21 11 NW - 10
09.08.2020 05:00:00 21,8 18,2 22 12 NNW 1010,9 10
09.08.2020 04:00:00 22,0 17,0 2 1 NNW - 10
09.08.2020 03:00:00 22,0 17,0 18 10 NW - 10
09.08.2020 02:00:00 22,0 17,4 16 9 NW 1011,3 10
09.08.2020 01:00:00 22,0 19,0 11 6 NNW - 10
09.08.2020 00:00:00 21,0 18,0 11 6 NW - 10
08.08.2020 23:00:00 22,0 20,7 15 8 NNW 1011,8 10
08.08.2020 22:00:00 23,0 21,0 16 9 NNW - 10
08.08.2020 21:00:00 23,0 19,0 13 7 NNW - 10
08.08.2020 20:00:00 24,2 15,4 18 10 N 1011,6 10
08.08.2020 19:00:00 26,0 13,0 22 12 N - 10
08.08.2020 18:00:00 27,0 11,0 24 13 N - 10
08.08.2020 17:00:00 26,4 10,5 24 13 N 1010,6 10
08.08.2020 16:00:00 28,0 11,0 22 12 N - 10
08.08.2020 15:00:00 28,0 12,0 24 13 N - 10
08.08.2020 14:00:00 27,8 11,8 22 12 N 1010,7 10
08.08.2020 13:00:00 27,0 15,0 22 12 N - 10
08.08.2020 12:00:00 27,0 16,0 18 10 N - 10
08.08.2020 11:00:00 26,4 15,8 18 10 NNW 1011,3 10
08.08.2020 10:00:00 25,0 19,0 18 10 NNW - 10
08.08.2020 09:00:00 24,0 20,0 21 11 NNW - 10
08.08.2020 08:00:00 23,0 19,4 22 12 NW 1011,7 10
08.08.2020 07:00:00 22,0 19,0 13 7 NW - 10
08.08.2020 06:00:00 21,0 18,0 13 7 NW - 10
08.08.2020 05:00:00 22,0 19,2 15 8 NW 1011,1 10
08.08.2020 04:00:00 21,0 17,0 8 4 WNW - 10
08.08.2020 03:00:00 21,0 18,0 4 2 NW - 10
08.08.2020 02:00:00 20,8 18,0 5 3 WNW 1012,3 10
08.08.2020 01:00:00 21,0 18,0 8 4 WNW - 10
08.08.2020 00:00:00 20,0 18,0 8 4 NW - 10
07.08.2020 23:00:00 20,2 17,4 9 5 WNW 1013,0 10
07.08.2020 22:00:00 21,0 19,0 8 4 NW - 10
07.08.2020 21:00:00 22,0 19,0 9 5 N - 10
07.08.2020 20:00:00 23,0 19,4 13 7 NNW 1012,1 10
07.08.2020 19:00:00 24,0 17,0 16 9 N - 10
07.08.2020 18:00:00 24,0 16,0 18 10 NNW - 10
07.08.2020 17:00:00 25,0 16,7 21 11 N 1011,6 10
07.08.2020 16:00:00 27,0 15,0 16 9 N - 10
07.08.2020 15:00:00 27,0 13,0 21 11 NNE - 10
07.08.2020 14:00:00 26,8 13,9 24 13 N 1011,2 10
07.08.2020 13:00:00 26,0 16,0 18 10 N - 10
07.08.2020 12:00:00 22,0 18,0 15 8 N - 10
07.08.2020 11:00:00 22,4 18,8 15 8 N 1012,3 10
07.08.2020 10:00:00 23,0 19,0 21 11 NNW - 10
07.08.2020 09:00:00 23,0 18,0 21 11 NNW - 10
07.08.2020 08:00:00 22,0 19,5 21 11 NNW 1011,4 10
07.08.2020 07:00:00 20,0 18,0 16 9 NW - 10
07.08.2020 06:00:00 19,0 18,0 13 7 NW - 10
07.08.2020 05:00:00 19,4 18,6 13 7 NW 1011,5 10
07.08.2020 04:00:00 19,0 18,0 15 8 NW - 10
07.08.2020 03:00:00 20,0 18,0 13 7 NW - 10
07.08.2020 02:00:00 18,8 17,1 9 5 NW 1012,1 10
07.08.2020 01:00:00 20,0 18,0 9 5 NW - 10
07.08.2020 00:00:00 20,0 19,0 9 5 NW - 10
06.08.2020 23:00:00 19,8 17,6 8 4 WNW 1012,2 10
06.08.2020 22:00:00 20,0 17,0 4 2 WNW - 10
06.08.2020 21:00:00 21,0 19,0 9 5 S - 10
06.08.2020 20:00:00 21,0 18,9 15 8 N 1011,2 10
06.08.2020 19:00:00 22,0 19,0 15 8 N - 10
06.08.2020 18:00:00 23,0 16,0 22 12 N - 10
06.08.2020 17:00:00 24,2 16,0 24 13 N 1009,7 10
06.08.2020 16:00:00 24,0 15,0 18 10 N - 10
06.08.2020 15:00:00 22,0 19,0 15 8 N - 10
06.08.2020 14:00:00 23,0 15,8 21 11 NNW 1010,0 10
06.08.2020 13:00:00 23,0 14,0 16 9 NNW - 10
06.08.2020 12:00:00 21,0 13,0 16 9 N - 10
06.08.2020 11:00:00 23,0 15,6 18 10 NNW 1009,7 8
06.08.2020 10:00:00 21,0 19,0 15 8 NNW - 10
06.08.2020 09:00:00 22,0 15,0 16 9 N - 10
06.08.2020 08:00:00 21,0 14,2 16 9 NW 1009,3 10
06.08.2020 07:00:00 18,0 15,0 11 6 NW - 10
06.08.2020 06:00:00 18,0 15,0 5 3 NW - 10
06.08.2020 05:00:00 18,0 15,2 9 5 NW 1009,2 10
06.08.2020 04:00:00 18,0 15,0 11 6 NW - 10
06.08.2020 03:00:00 18,0 15,0 5 3 NNW - 10
06.08.2020 02:00:00 17,6 14,9 9 5 NW 1009,2 10
06.08.2020 01:00:00 17,0 15,0 9 5 NW - 10
06.08.2020 00:00:00 18,0 16,0 9 5 WNW - 10
05.08.2020 23:00:00 18,2 15,6 8 4 NNW 1009,1 10
05.08.2020 22:00:00 18,0 17,0 9 5 NW - 10
05.08.2020 21:00:00 19,0 17,0 9 5 NW - 10
05.08.2020 20:00:00 20,2 17,6 11 6 N 1008,4 10
05.08.2020 19:00:00 21,0 16,0 15 8 NNW - 10
05.08.2020 18:00:00 21,0 15,0 21 11 NW - 10
05.08.2020 17:00:00 22,0 15,1 18 10 NW 1007,5 10
05.08.2020 16:00:00 24,0 13,0 28 15 WSW - 10
05.08.2020 15:00:00 26,0 7,0 15 8 SSW - 10
05.08.2020 14:00:00 26,6 7,6 15 8 SSE 1006,2 10
05.08.2020 13:00:00 27,0 5,0 9 5 S - 10
05.08.2020 12:00:00 26,0 8,0 8 4 NNE - 10
05.08.2020 11:00:00 24,8 9,1 8 4 N 1006,1 10
05.08.2020 10:00:00 23,0 10,0 13 7 N - 10
05.08.2020 09:00:00 23,0 10,0 9 5 N - 10
05.08.2020 08:00:00 21,0 11,1 15 8 WNW 1006,5 10
05.08.2020 07:00:00 18,0 12,0 8 4 WNW - 10
05.08.2020 06:00:00 16,0 11,0 8 4 W - 10
05.08.2020 05:00:00 18,4 10,5 4 2 NNE 1007,1 10
05.08.2020 04:00:00 18,0 10,0 8 4 WNW - 10
05.08.2020 03:00:00 18,0 12,0 4 2 - - 10
05.08.2020 02:00:00 19,2 12,5 4 2 WNW 1007,0 10
05.08.2020 01:00:00 20,0 12,0 9 5 N - 10
05.08.2020 00:00:00 20,0 11,0 5 3 NNE - 10
04.08.2020 23:00:00 21,0 9,6 8 4 SSW 1006,5 10
04.08.2020 22:00:00 23,0 7,0 11 6 W - 10
04.08.2020 21:00:00 24,0 8,0 11 6 W - 10
04.08.2020 20:00:00 25,4 18,4 13 7 SSW 1004,7 8
04.08.2020 19:00:00 27,0 19,0 22 12 S - 8
04.08.2020 18:00:00 27,0 25,0 31 17 S - 8
04.08.2020 17:00:00 26,4 24,1 24 13 S 1004,4 7
04.08.2020 16:00:00 25,0 24,0 22 12 S - 7
04.08.2020 15:00:00 27,0 22,0 28 15 S - 8
04.08.2020 14:00:00 28,6 21,1 29 16 SSE 1005,6 8
04.08.2020 13:00:00 28,0 22,0 26 14 S - 8
04.08.2020 12:00:00 27,0 22,0 22 12 S - 10
04.08.2020 11:00:00 26,8 22,0 24 13 SSE 1006,0 9
04.08.2020 10:00:00 26,0 22,0 18 10 SSE - 9
04.08.2020 09:00:00 26,0 20,0 15 8 SE - 9
04.08.2020 08:00:00 23,8 20,1 8 4 S 1006,1 9
04.08.2020 07:00:00 23,0 21,0 4 2 - - 9
04.08.2020 06:00:00 22,0 20,0 5 3 E - 9
04.08.2020 05:00:00 22,8 18,8 8 4 E 1005,9 9
04.08.2020 04:00:00 23,0 22,0 13 7 SSW - 7
04.08.2020 03:00:00 23,0 22,0 11 6 S - 6
04.08.2020 02:00:00 23,2 22,5 15 8 S 1005,4 6
04.08.2020 01:00:00 23,0 23,0 11 6 S - 5
04.08.2020 00:00:00 24,0 24,0 21 11 S - 6
03.08.2020 23:00:00 24,8 24,3 22 12 S 1005,3 7
03.08.2020 22:00:00 25,0 24,0 26 14 S - 7
03.08.2020 21:00:00 25,0 25,0 29 16 SSE - 7

tt = temperature
td = dewpoint
ff = wind speed
dd = wind direction
ppp = reduced air pressure
vv = visibility

Next stations